TimeEST,TemperatureF,Dew PointF,Humidity,Sea Level PressureIn,VisibilityMPH,Wind Direction,Wind SpeedMPH,Gust SpeedMPH,PrecipitationIn,Events,Conditions,WindDirDegrees,DateUTC
12:53 AM,33.1,26.1,75,29.94,10.0,Calm,Calm,-,N/A,,Overcast,0,2013-02-05 05:53:00
1:53 AM,33.1,27.0,78,29.94,10.0,Calm,Calm,-,N/A,,Overcast,0,2013-02-05 06:53:00
2:53 AM,33.1,28.0,82,29.93,10.0,Calm,Calm,-,N/A,,Overcast,0,2013-02-05 07:53:00
3:53 AM,34.0,27.0,75,29.94,9.0,Calm,Calm,-,0.00,Rain,Light Rain,0,2013-02-05 08:53:00
4:53 AM,33.1,28.9,85,29.94,10.0,Calm,Calm,-,0.00,,Overcast,0,2013-02-05 09:53:00
5:53 AM,34.0,30.0,85,29.93,10.0,Calm,Calm,-,N/A,,Overcast,0,2013-02-05 10:53:00
6:53 AM,34.0,30.9,89,29.94,10.0,Calm,Calm,-,N/A,,Overcast,0,2013-02-05 11:53:00
7:53 AM,34.0,30.9,89,29.95,10.0,Calm,Calm,-,N/A,,Overcast,0,2013-02-05 12:53:00
8:53 AM,35.1,30.9,85,29.96,10.0,Calm,Calm,-,N/A,,Overcast,0,2013-02-05 13:53:00
9:53 AM,39.9,32.0,73,29.97,10.0,SW,6.9,-,N/A,,Overcast,220,2013-02-05 14:53:00
10:53 AM,42.1,34.0,73,29.98,10.0,WSW,10.4,-,N/A,,Overcast,240,2013-02-05 15:53:00
11:53 AM,44.1,35.1,71,29.97,10.0,WSW,15.0,-,N/A,,Overcast,250,2013-02-05 16:53:00
12:50 PM,44.6,35.6,71,29.97,10.0,WSW,10.4,-,N/A,,Overcast,240,2013-02-05 17:50:00
12:53 PM,45.0,36.0,71,29.96,10.0,SW,9.2,-,N/A,,Overcast,230,2013-02-05 17:53:00
1:31 PM,46.0,37.9,73,29.95,10.0,SW,13.8,-,N/A,,Mostly Cloudy,220,2013-02-05 18:31:00
1:53 PM,46.0,37.0,71,29.93,10.0,SW,11.5,-,N/A,,Mostly Cloudy,230,2013-02-05 18:53:00
2:23 PM,48.0,37.0,66,29.94,10.0,SW,11.5,20.7,N/A,,Overcast,220,2013-02-05 19:23:00
2:53 PM,48.0,36.0,63,29.93,10.0,SW,11.5,-,N/A,,Mostly Cloudy,230,2013-02-05 19:53:00
3:16 PM,48.9,36.0,61,29.94,10.0,West,6.9,-,N/A,,Mostly Cloudy,260,2013-02-05 20:16:00
3:53 PM,48.9,36.0,61,29.93,10.0,SW,8.1,-,N/A,,Mostly Cloudy,230,2013-02-05 20:53:00
4:53 PM,50.0,35.1,57,29.92,10.0,SW,9.2,-,N/A,,Mostly Cloudy,230,2013-02-05 21:53:00
5:53 PM,45.0,35.1,68,29.92,10.0,SSW,6.9,-,N/A,,Scattered Clouds,210,2013-02-05 22:53:00
6:53 PM,41.0,34.0,76,29.94,10.0,SW,4.6,-,N/A,,Scattered Clouds,220,2013-02-05 23:53:00
7:53 PM,37.0,33.1,86,29.96,10.0,Calm,Calm,-,N/A,,Partly Cloudy,0,2013-02-06 00:53:00
8:53 PM,35.1,30.9,85,29.96,10.0,Calm,Calm,-,N/A,,Clear,0,2013-02-06 01:53:00
9:53 PM,33.1,30.9,92,29.97,10.0,Calm,Calm,-,N/A,,Clear,0,2013-02-06 02:53:00
10:53 PM,30.9,28.9,92,29.99,8.0,North,4.6,-,N/A,,Clear,10,2013-02-06 03:53:00
11:53 PM,30.9,28.9,92,29.99,6.0,Calm,Calm,-,N/A,,Clear,0,2013-02-06 04:53:00